{"data":{"norad_id":68933,"epoch":"2026-09-19T22:57:34.837344Z","epoch_age_seconds":62358,"freshness":"FRESH","line1":"1 68933U 26098Q   26262.95665321  .00001311  00000+0  20092-3 0  9990","line2":"2 68933  51.9023 351.5446 0000424  86.3082 273.7929 14.79930190 21629","mean_motion":14.7993019,"eccentricity":4.24e-5,"inclination_deg":51.9023,"raan_deg":351.5446,"arg_perigee_deg":86.3082,"mean_anomaly_deg":273.7929,"bstar":0.00020092,"rev_number":2162,"period_min":97.301886922112,"perigee_km":629.24737396712,"apogee_km":629.8416253583,"semimajor_km":7007.6814996627,"source":"CELESTRAK","updated_at":"2026-09-20T09:00:24.580070Z"}}